Location: Chevoux
(46.3801°N, 4.9476°E)
Time: 22:17:21
(UTC+00:00)

X-37B - Pass Details

Date: 28 January 2021
Orbit: 383 x 391 km, 45.0° (Epoch: 27 February)

Event Time Altitude Azimuth Distance (km) Brightness Sun altitude
Rises 17:44:03 0° 275° (W) 2,273 6.0 -11.4°
Reaches altitude 10° 17:46:08 10° 270° (W) 1,418 4.8 -11.7°
Maximum altitude 17:49:16 55° 192° (SSW) 474 1.1 -12.3°
Enters shadow 17:51:36 16° 117° (ESE) 1,101 2.4 -12.6°
